{"data":{"norad_id":55610,"epoch":"2026-05-25T02:38:14.520192Z","epoch_age_seconds":58832,"freshness":"FRESH","line1":"1 55610U 23020AT  26145.10989028  .00000159  00000+0  15313-4 0  9990","line2":"2 55610  43.0053 282.9109 0001658 278.0091  82.0572 15.27575941180720","mean_motion":15.27575941,"eccentricity":0.0001658,"inclination_deg":43.0053,"raan_deg":282.9109,"arg_perigee_deg":278.0091,"mean_anomaly_deg":82.0572,"bstar":1.5313e-5,"rev_number":18072,"period_min":94.266999194641,"perigee_km":481.9236635029,"apogee_km":484.19883684266,"semimajor_km":6861.1982501728,"source":"CELESTRAK","updated_at":"2026-05-25T13:38:17.843335Z"}}